カタログに戻る

THORAD AGENA D DEB

運用中LEO
NORAD 4211·DEBRIS·🇺🇸 United States

打ち上げ Sep 30, 1969 から Vandenberg Space Force Base

Loading…

次のパス (今後24時間)

TLE

最新Source: Space-Track

元期: Sep 14, 2026, 07:09 UTC

1 04211U 69082CA  26257.29819378  .00000099  00000-0  84169-4 0  9992
2 04211  70.0714 203.3888 0034125 226.3885 133.4397 14.11487326925609

AllMySatでTHORAD AGENA D DEBをリアルタイム追跡

Download on the App Store